www.pogodaiklimat.ru
ПОГОДА в Вилла Долорес

Архив погоды в Вилла Долорес (Аргентина)

Время
(UTC), дата
22 29.11
23 29.11
00 30.11
01 30.11
02 30.11
03 30.11
04 30.11
05 30.11
06 30.11
07 30.11
08 30.11
09 30.11
10 30.11
11 30.11
12 30.11
13 30.11
14 30.11
15 30.11
16 30.11
17 30.11
18 30.11
19 30.11
20 30.11
21 30.11
22 30.11
23 30.11
00 1.12
01 1.12
02 1.12
03 1.12
04 1.12
05 1.12
06 1.12
07 1.12
08 1.12
09 1.12
10 1.12
11 1.12
12 1.12
13 1.12
14 1.12
15 1.12
16 1.12
17 1.12
18 1.12
19 1.12
20 1.12
21 1.12
22 1.12
23 1.12
00 2.12
01 2.12
02 2.12
03 2.12
04 2.12
05 2.12
06 2.12
07 2.12
08 2.12
09 2.12
10 2.12
11 2.12
12 2.12
13 2.12
14 2.12
15 2.12
16 2.12
17 2.12
18 2.12
19 2.12
20 2.12
21 2.12
22 2.12
23 2.12
00 3.12
01 3.12
02 3.12
03 3.12
04 3.12
05 3.12
06 3.12
07 3.12
08 3.12
09 3.12
10 3.12
11 3.12
12 3.12
13 3.12
14 3.12
15 3.12
16 3.12
17 3.12
18 3.12
19 3.12
20 3.12
21 3.12
22 3.12
23 3.12
00 4.12
01 4.12
02 4.12
03 4.12
04 4.12
05 4.12
06 4.12
09 4.12
10 4.12
12 4.12
13 4.12
14 4.12
15 4.12
16 4.12
17 4.12
18 4.12
19 4.12
20 4.12
21 4.12
22 4.12
23 4.12
00 5.12
01 5.12
02 5.12
03 5.12
04 5.12
05 5.12
06 5.12
07 5.12
08 5.12
09 5.12
10 5.12
11 5.12
12 5.12
13 5.12
14 5.12
15 5.12
16 5.12
17 5.12
18 5.12
19 5.12
20 5.12
21 5.12
22 5.12
23 5.12
00 6.12
01 6.12
02 6.12
03 6.12
04 6.12
05 6.12
06 6.12
07 6.12
08 6.12
09 6.12
10 6.12
11 6.12
12 6.12
13 6.12
14 6.12
15 6.12
17 6.12
18 6.12
19 6.12
20 6.12
21 6.12
Ветер
(напр.,м/с)
Видим. Явления Облачность Т
(С)
Тd
(С)
f
(%)
Тe
(С)
Тes
(С)
Комфортность P
(гПа)
Po
(гПа)
Тmin
(С)
Tmax
(С)
R
(мм)
R24
(мм)
S
(см)
СВ 4 30 км 9/3 1200 м
[Cb cap Ac As Cs]
+29.0 +13.6 39 +31 +31 жарко 1000.8 938.1
СЗ 3 20 км гроза, ливневой дождь 9/9 1200 м
[Cb cap]
+23.4 +19.5 79 +30 +30 очень
душно
1002.0 938.9
СВ 3 30 км в посл. час гроза туман 8/8 1200 м
[Cb cap]
+21.8 +18.4 81 +27 +27 душно 1002.0 938.9 +20.8 +37.0 3
ЮЗ 2 30 км зарница {гроза} 6/6 1200 м
[Cb cap]
+23.2 +14.3 57 +27 +27 душно 1001.2 938.9
СЗ 8 30 км в посл. час гроза туман 10/10 900 м
[Cb cap]
+21.2 +17.1 77 +25 +25 комфорт 1003.3 940.8
СЗ 6 30 км зарница {гроза} 10/10 900 м
[Cb cap]
+21.0 +16.2 74 +24 +24 комфорт 1002.9 940.6
штиль 0 30 км в посл. час дождь со снегом 10/10 1200 м
[Cb cap]
+22.2 +15.4 65 +26 +26 душно 1001.6 939.6
штиль 0 30 км зарница 9/9 1200 м
[Cb cap]
+21.8 +16.4 71 +26 +26 душно 1003.7 941.6
штиль 0 20 км дождь {гроза} 10/3 900 м
[Sc As op]
+19.2 +17.9 92 +21 +21 комфорт 1007.2 944.8 6
штиль 0 20 км дождь 10/6 900 м
[Sc As op]
+19.0 +17.7 92 +20 +20 1007.2 944.2
ЮЗ 4 30 км в посл. час дождь 10/3 900 м
[Sc Ac As]
+18.8 +18.2 96 +20 +20 1007.4 943.6
З 9 30 км {дождь} 10/4 900 м
[Sc Ac As]
+18.4 +16.8 90 +18 +18 1006.8 943.3
ЮВ 8 30 км 10/5 900 м
[Sc Ac As]
+17.8 +16.5 92 +17 +17 1008.1 944.6
В 9 10 км слаб. дождь 10/6 240 м
[Sc As op]
+17.2 +15.9 92 +16 +16 1008.7 944.6
ЮВ 4 30 км в посл. час дождь 8/0 900 м
[Cu hum Ac und Ci]
+18.0 +16.4 90 +18 +20 1009.5 945.3 +17.2 +23.2 6
ЮВ 3 30 км {дождь} 8/4 900 м
[Sc Ac As]
+19.8 +17.3 86 +23 +26 комфорт 1009.6 945.7
ЮВ 3 30 км 6/6 900 м
[Cu hum Ac As]
+22.0 +16.2 70 +26 +32 душно 1009.1 945.2
Ю 1 30 км 6/1 900 м
[Cu hum Ac As]
+24.1 +17.6 67 +28 +41 душно 1008.9 945.2
Ю 2 30 км 8/3 1200 м
[Cu hum Cs]
+26.0 +14.7 50 +29 +43 душно 1008.2 944.9
Ю 1 30 км 8/5 1200 м
[Cu hum Cs]
+26.8 +14.5 47 +29 +40 жарко 1007.7 944.4
ЮВ 1 30 км 6/5 1200 м
[Cu hum Cs]
+27.4 +12.8 40 +29 +39 жарко 1007.3 943.8
ЮВ 1 30 км 6/5 1200 м
[Cu hum Cs]
+27.8 +12.7 39 +29 +37 жарко 1006.5 943.2
Ю 1 30 км 6/5 1200 м
[Cu hum Ci fib]
+28.4 +12.5 37 +30 +35 жарко 1006.4 943.2
В 1 30 км 4/4 1200 м
[Cu hum Ci fib]
+29.0 +14.2 40 +31 +34 жарко 1006.0 942.8
В 1 30 км 3/3 1200 м
[Cu hum Ci fib]
+27.8 +11.9 37 +29 +30 жарко 1006.2 942.8
штиль 0 30 км 3/1 1200 м
[Cb calv Ci fib]
+25.6 +13.4 47 +28 +28 жарко 1006.1 942.4
штиль 0 30 км 4/0
[Cs]
+22.4 +14.9 63 +26 +26 жарко 1006.8 942.8 +18.0 +29.0
В 2 30 км 6/0
[Cs]
+20.8 +13.9 65 +24 +24 комфорт 1007.3 943.3
В 2 30 км зарница 9/1 1200 м
[Cb cap Cs]
+20.0 +13.6 67 +23 +23 комфорт 1007.7 943.8
В 2 30 км 9/0
[Cs]
+19.0 +15.7 81 +21 +21 комфорт 1008.1 944.2
В 2 30 км зарница 9/1 1200 м
[Cb cap Cs]
+18.3 +14.4 78 +19 +19 1008.2 944.5
В 2 30 км зарница 9/1 1200 м
[Cb cap Cs]
+17.6 +14.8 84 +18 +18 1007.5 943.8
штиль 0 30 км зарница 9/6 1200 м
[Cb cap Cs]
+17.4 +15.1 86 +17 +17 1008.7 945.0
СВ 2 30 км зарница 9/6 1200 м
[Cb cap Cs]
+17.2 +15.2 88 +18 +18 1008.7 945.0
штиль 0 30 км зарница 10/5 1200 м
[Cb cap Ac As Cs]
+17.2 +15.0 87 +17 +17 1009.6 946.0
штиль 0 30 км зарница 10/3 1200 м
[Cb cap Ac As Cs]
+16.7 +14.8 89 +17 +17 1009.9 946.6
штиль 0 30 км 10/4 1200 м
[Cb cap Ac As Cs]
+18.4 +15.1 81 +19 +19 1012.9 949.3
СВ 3 30 км гроза без осадков 10/5 900 м
[Cb cap As op]
+18.2 +14.5 79 +19 +19 1014.9 950.6
СВ 4 30 км гроза без осадков туман 10/4 1200 м
[Cb cap Ac As]
+18.9 +14.9 78 +20 +21 1015.2 950.6 +16.2 +22.4
СВ 1 30 км в посл. час гроза 10/4 900 м
[Sc Ac As]
+20.2 +14.6 70 +24 +26 комфорт 1015.5 951.0
С 4 30 км {гроза} 9/5 1200 м
[Sc Cs]
+21.8 +14.2 62 +25 +29 комфорт 1015.6 951.2
З 4 30 км 9/6 1200 м
[Cu med, cong Cs]
+23.7 +14.4 56 +26 +31 жарко 1014.8 950.6
СЗ 3 30 км гроза без осадков туман 9/6 1200 м
[Cb cap Cs]
+24.0 +14.1 54 +26 +33 жарко 1014.8 950.5
В 10 30 км гроза без осадков туман 9/9 1200 м
[Cb cap]
+21.0 +10.3 50 +22 +22 комфорт 1015.2 950.5
СВ 4 30 км в посл. час гроза туман 9/9 1200 м
[Cb cap]
+21.0 +14.0 64 +24 +25 комфорт 1014.7 950.0 0.3
СВ 4 30 км 9/6 1200 м
[Cu med, cong Ac As]
+23.5 +13.1 52 +26 +27 жарко 1014.0 949.6
СВ 3 30 км осадки на расстоянии 8/8 1200 м
[Cb cap]
+26.1 +11.7 41 +27 +29 жарко 1012.9 948.8
ЮВ 1 30 км осадки на расстоянии 8/8 1200 м
[Cb cap]
+25.4 +11.8 43 +27 +28 жарко 1012.6 948.4
З 1 30 км осадки на расстоянии 8/8 1200 м
[Cb cap]
+23.1 +11.6 48 +25 +26 комфорт 1012.6 948.4
штиль 0 30 км 6/6 1200 м
[Sc]
+22.4 +11.5 50 +25 +25 комфорт 1012.7 948.4
штиль 0 30 км 5/5 1200 м
[Sc]
+21.0 +12.8 59 +23 +23 комфорт 1012.8 948.4 +18.9 +26.4
штиль 0 30 км 3/3 1200 м
[Sc]
+19.6 +14.6 73 +21 +21 комфорт 1014.2 949.6
В 1 30 км 3/3 1200 м
[Sc]
+19.1 +13.9 72 +21 +21 комфорт 1015.2 950.6
В 1 30 км 3/3 1200 м
[Sc]
+17.2 +13.8 80 +18 +18 1015.3 950.8
СВ 1 30 км 5/5 1200 м
[Sc]
+17.2 +12.3 73 +18 +18 1015.3 950.8
СВ 1 30 км 5/5 1200 м
[Sc]
+17.0 +12.3 74 +18 +18 1015.2 950.4
штиль 0 30 км ясно +15.6 +12.1 80 +15 +15 1015.3 950.4
штиль 0 30 км ясно +15.2 +12.0 81 +15 +15 1015.2 950.4
штиль 0 30 км ясно +15.2 +11.2 77 +15 +15 1014.9 950.4
В 1 30 км 1/1 1200 м
[Sc]
+15.0 +11.4 79 +16 +16 1015.0 950.4
штиль 0 30 км 1/1 1200 м
[Cu hum]
+15.1 +11.5 79 +15 +15 1015.8 951.0
штиль 0 30 км ясно +20.0 +13.0 64 +22 +25 комфорт 1016.2 951.6
Ю 2 30 км 1/1 1200 м
[Cu hum]
+22.6 +12.6 53 +25 +31 комфорт 1015.8 951.4 +14.1 +22.6 0.3
ЮЗ 4 30 км 3/3 1200 м
[Cu hum]
+23.9 +12.0 47 +26 +31 жарко 1015.4 951.2
Ю 4 30 км 3/3 1200 м
[Cu hum]
+25.3 +12.1 44 +27 +34 жарко 1015.1 950.9
ЮЗ 4 30 км 4/4 1200 м
[Cu hum]
+27.0 +10.2 35 +28 +36 жарко 1014.7 950.5
ЮЗ 3 30 км 4/4 1200 м
[Cu hum]
+27.9 +10.1 33 +28 +39 жарко 1013.4 949.4
ЮЗ 4 30 км 4/4 1200 м
[Cu hum]
+28.8 +10.1 31 +29 +37 жарко 1012.2 948.4
З 4 30 км 4/4 1200 м
[Cu hum]
+30.6 +4.8 20 +29 +37 жарко 1011.0 947.3
З 3 30 км 5/5 1200 м
[Cu Sc]
+30.1 +6.0 22 +29 +35 жарко 1010.4 946.6
СЗ 4 30 км 4/4 1200 м
[Cu hum]
+30.7 +5.3 20 +29 +33 жарко 1009.0 945.4
З 3 30 км 4/4 1200 м
[Cu hum]
+31.2 +5.3 20 +29 +32 жарко 1008.4 944.8
З 3 30 км 4/4 1200 м
[Sc]
+30.6 +5.7 21 +29 +30 жарко 1008.8 945.2
З 1 30 км 4/4 1500 м
[Sc]
+29.0 +7.5 26 +28 +28 жарко 1008.6 945.3
штиль 0 30 км 3/3 1500 м
[Sc]
+26.2 +7.4 30 +26 +26 жарко 1009.3 946.0 +22.6 +31.7
В 1 30 км 3/3 1500 м
[Sc]
+23.8 +9.6 41 +25 +25 комфорт 1009.8 946.4
ЮВ 1 30 км 4/4 1500 м
[Sc]
+22.7 +9.7 44 +24 +24 комфорт 1010.6 947.2
В 1 30 км ясно +22.6 +7.8 39 +24 +24 комфорт 1010.4 947.2
В 3 30 км ясно +22.5 +6.9 37 +23 +23 комфорт 1010.1 946.9
В 1 30 км ясно +21.2 +7.3 41 +22 +22 комфорт 1009.8 946.5
В 1 30 км ясно +20.4 +7.1 42 +22 +22 комфорт 1009.4 946.4
ЮВ 1 30 км ясно +20.0 +7.6 45 +22 +22 комфорт 1009.8 946.5
СВ 3 30 км ясно +20.4 +7.6 44 +22 +22 комфорт 1009.6 946.5
В 3 30 км ясно +19.2 +9.8 54 +20 +20 1010.2 947.0
ЮВ 1 30 км ясно +18.5 +9.1 54 +20 +20 1011.1 947.7
штиль 0 30 км ясно +22.3 +10.0 46 +24 +27 комфорт 1011.1 947.8
СВ 4 30 км ясно +25.4 +10.2 38 +26 +31 жарко 1011.6 948.4 +18.3 +26.5
З 2 30 км ясно +27.7 +7.8 28 +27 +39 жарко 1011.4 948.2
ЮЗ 2 30 км ясно +28.3 +8.5 29 +28 +45 жарко 1010.8 947.6
З 2 30 км ясно +30.0 +9.2 27 +29 +51 опасность
солнечного
удара
1010.3 947.3
СЗ 5 30 км ясно +30.9 +8.0 24 +30 +42 жарко 1009.9 947.0
З 4 30 км 1/1 1200 м
[Cu hum]
+31.3 +8.7 25 +30 +44 жарко 1009.7 946.8
З 3 30 км 1/1 1200 м
[Cu hum]
+32.4 +7.9 22 +31 +46 жарко 1008.9 945.7
ЮЗ 4 30 км 1/1 1200 м
[Cu hum]
+32.8 +8.6 22 +31 +41 жарко 1008.4 945.6
З 3 30 км 1/1 1200 м
[Cu hum]
+33.7 +7.7 20 +32 +40 жарко 1007.1 944.5
штиль 0 30 км 1/1 1200 м
[Cu hum]
+33.4 +8.9 22 +32 +38 жарко 1006.3 943.6
штиль 0 30 км 1/1 1200 м
[Cu hum]
+33.0 +7.3 20 +31 +33 жарко 1005.7 942.8
ЮЗ 1 30 км 1/1 1200 м
[Cu hum]
+32.1 +9.8 25 +31 +31 жарко 1004.9 942.4
ЮВ 2 30 км 3/1 1200 м
[Cu hum Ci]
+28.7 +10.9 33 +29 +29 жарко 1005.1 942.5 +25.2 +33.9
В 1 30 км 1/0
[Ci]
+25.0 +10.4 40 +26 +26 жарко 1006.5 943.7
штиль 0 30 км 3/0
[Ci]
+23.3 +9.6 42 +25 +25 комфорт 1007.7 944.8
В 2 30 км 3/0
[Ci]
+22.4 +6.2 35 +23 +23 комфорт 1007.8 944.9
В 2 30 км 3/0
[Ci]
+22.2 +5.4 34 +23 +23 комфорт 1007.9 945.2
В 2 30 км 1/0
[Ci]
+20.5 +6.3 40 +22 +22 комфорт 1007.9 944.9
СВ 2 30 км 1/0
[Ci]
+21.9 +5.7 35 +22 +22 комфорт 1007.7 945.0
В 1 30 км 3/0
[Ac As]
+19.9 +6.9 43 +22 +22 комфорт 1008.1 945.3
В 3 30 км 4/1 1500 м
[Cu med, cong Ac As]
+18.2 +8.2 52 +19 +19 1009.1 946.0
СВ 3 30 км 4/0
[Ci]
+23.2 +10.4 44 +25 +30 комфорт 1010.1 947.0 +18.2 +28.7
штиль 0 30 км 4/4 1500 м
[Sc]
+27.9 +9.6 32 +28 +37 жарко 1010.2 947.3
СВ 2 30 км 4/4 1500 м
[Sc]
+29.6 +9.6 29 +29 +39 жарко 1010.1 947.0
ЮЗ 4 30 км 1/1 1500 м
[Sc]
+32.4 +6.7 20 +31 +44 жарко 1009.4 946.6
штиль 0 30 км 1/1 1200 м
[Cu hum]
+33.0 +7.8 21 +31 +58 опасность
солнечного
удара
1009.0 946.2
С 3 30 км 3/3 1200 м
[Cu hum]
+34.2 +7.2 19 +32 +46 жарко 1008.5 945.8
З 3 30 км 3/3 1200 м
[Cu hum]
+35.8 +6.0 16 +33 +44 жарко 1007.4 945.0
С 4 30 км 4/4 1200 м
[Cu hum]
+35.8 +6.0 16 +33 +39 жарко 1006.7 944.4
С 3 30 км 4/4 1200 м
[Cu Sc]
+35.6 +6.2 16 +33 +38 жарко 1006.8 944.4
СЗ 3 30 км 4/4 1200 м
[Cu Sc]
+36.0 +7.1 17 +34 +36 очень
жарко
1005.5 943.2
С 4 30 км 3/3 1200 м
[Cu Sc]
+35.8 +4.7 15 +33 +34 жарко 1005.4 942.9
СВ 4 30 км 3/3 1200 м
[Sc]
+32.7 +6.4 19 +31 +31 жарко 1005.0 942.6
СВ 4 30 км 1/1 1200 м
[Sc]
+29.6 +6.8 24 +28 +28 жарко 1006.4 943.6 +23.3 +36.9
СВ 6 30 км 3/3 1200 м
[Sc]
+30.2 +4.6 20 +28 +28 жарко 1006.1 944.0
СВ 8 30 км 1/1 1200 м
[Sc]
+29.9 +4.0 19 +28 +28 жарко 1006.8 944.8
СВ 8 30 км 1/1 1500 м
[Sc]
+29.2 +5.5 22 +28 +28 жарко 1006.8 944.9
СВ 8 30 км 3/3 1500 м
[Sc]
+28.8 +5.4 23 +28 +28 жарко 1006.8 944.9
СВ 8 30 км 1/1 1500 м
[Sc]
+28.0 +5.7 24 +27 +27 жарко 1006.8 944.9
СВ 6 30 км ясно +27.3 +5.9 26 +27 +27 жарко 1006.1 944.4
штиль 0 30 км ясно +24.8 +6.8 32 +25 +25 комфорт 1006.4 944.4
штиль 0 30 км ясно +23.2 +7.2 36 +24 +24 комфорт 1006.7 944.5
штиль 0 30 км ясно +21.0 +8.7 45 +22 +22 комфорт 1006.9 944.5
ЮВ 3 30 км ясно +20.4 +8.1 45 +22 +22 комфорт 1008.2 945.7
ЮВ 3 30 км ясно +24.4 +9.5 39 +25 +27 комфорт 1008.8 946.4
ЮВ 3 30 км ясно +27.1 +8.6 31 +27 +33 жарко 1009.2 946.6 +20.4 +30.5
ЮВ 2 30 км ясно +28.9 +8.7 28 +28 +40 жарко 1008.9 946.6
З 2 30 км ясно +31.2 +10.4 28 +31 +48 жарко 1008.3 946.2
З 2 30 км ясно +33.0 +8.7 22 +32 +51 опасность
солнечного
удара
1007.7 945.8
З 2 30 км ясно +34.3 +7.7 19 +32 +56 опасность
солнечного
удара
1006.7 945.0
С 4 30 км ясно +36.8 +6.2 15 +34 +48 очень
жарко
1005.7 944.2
С 6 30 км ясно +38.2 -0.5 9 +34 +41 очень
жарко
1004.5 943.2
С 8 30 км 1/1 1200 м
[Cu hum]
+38.4 +0.1 9 +35 +37 очень
жарко
1003.4 941.8
С 8 30 км 3/3 1200 м
[Cu hum]
+38.2 +1.3 10 +35 +36 очень
жарко
1002.6 940.9
С 8 30 км 3/3 1200 м
[Cu hum]
+38.1 +2.3 11 +35 +35 очень
жарко
1001.8 940.0
С 10 30 км 3/3 1200 м
[Cu hum]
+36.6 +2.0 11 +33 +33 жарко 1001.9 939.8
С 8 30 км ясно +34.6 +1.8 13 +31 +31 жарко 1001.8 940.0
С 5 30 км ясно +32.8 +2.9 15 +30 +30 жарко 1002.7 940.9 +27.1 +39.2
С 5 30 км ясно +32.0 +4.6 18 +30 +30 жарко 1002.6 940.9
СВ 7 30 км ясно +31.4 +3.4 17 +29 +29 жарко 1004.3 942.6
С 9 30 км ясно +30.8 +3.5 18 +29 +29 жарко 1004.0 942.5
С 8 30 км ясно +30.4 +3.3 18 +28 +28 жарко 1003.9 942.5
С 5 30 км ясно +30.0 +3.2 18 +28 +28 жарко 1003.8 942.6
С 4 30 км ясно +29.6 +5.0 21 +28 +28 жарко 1003.7 942.6
С 3 30 км ясно +28.8 +6.0 24 +28 +28 жарко 1003.9 942.6
штиль 0 30 км ясно +26.2 +7.7 31 +26 +26 жарко 1005.0 943.4
штиль 0 30 км ясно +22.8 +8.6 40 +24 +24 комфорт 1006.6 944.6
СВ 3 30 км ясно +22.4 +9.0 42 +24 +24 комфорт 1007.6 945.4
СВ 1 30 км ясно +24.4 +9.7 39 +25 +28 комфорт 1009.3 946.9
штиль 0 30 км ясно +27.6 +12.2 38 +29 +37 жарко 1009.7 946.9 +22.4 +32.8
штиль 0 20 км мгла ясно +32.0 +10.2 26 +32 +47 жарко 1008.6 946.8
ЮВ 1 20 км мгла ясно +34.0 +11.2 25 +34 +52 опасность
солнечного
удара
1008.2 946.5
З 4 30 км 1/1 1500 м
[Cu hum]
+35.4 +9.7 21 +34 +46 очень
жарко
1007.7 946.1
СЗ 7 30 км 3/3 1500 м
[Cu hum]
+37.6 +8.4 17 +36 +40 очень
жарко
1006.6 945.3
СВ 4 30 км 4/4 1500 м
[Cu hum]
+38.4 +10.5 19 +37 +45 очень
жарко
1006.2 944.9
СВ 3 30 км 4/4 1500 м
[Cu hum]
+38.7 +10.8 19 +38 +45 очень
жарко
1005.3 944.0
С 3 30 км 4/4 1200 м
[Cu med, cong]
+39.4 +9.6 17 +38 +43 очень
жарко
1005.3 943.8
СВ 11 30 км в посл. час гроза 6/6 1200 м
[Cb cap]
+34.8 +8.9 20 +33 +33 жарко 1006.1 943.8
Местоположение метеостанции Вилла Долорес (Аргентина): широта -31.95 долгота -65.13 высота над уровнем моря 569 м.
В архиве по умолчанию представлена погода в Вилла Долорес за последнюю неделю. Архивные данные за месяц целиком и за предыдущие месяцы, начиная с января 2011 года, Вы можете получить, выбрав интересующий диапазон дат из раскрывающегося списка и нажав кнопку "Найти!".
*Определитесь, кто Вы:
Внимание! Время в таблицах - всемирное. Для получения местного времени необходимо прибавить поправку, которая равна -3 ч.
Смотрите также архив погоды в соседних городах и на ближайших метеорологических станциях:
Партнеры нашего сайта:      
Пояснения к столбцам:
  • Ветер - указаны скорость ветра в м/с - средняя за 10 мин, порывы в срок и между сроками (в фигурных скобках) и направление, откуда дует ветер: С - северный,
  • СВ - северо-восточный, В - восточный, ЮВ - юго-восточный, Ю - южный, ЮЗ - юго-западный, З - западный, СЗ - северо-западный.
  • Видимость - горизонтальная дальность видимости в метрах или километрах. При видимости от 1 до 10 км при отсутствии осадков обычно наблюдается дымка, при ухудшении видимости до 1 км и менее - туман. В сухую погоду видимость может ухудшаться дымом, пылью или мглою.
  • Явления - указаны атмосферные явления, наблюдавшиеся в срок или в последний час перед сроком; фигурными скобками обозначены явления, наблюдавшиеся между сроками (за 1-3 часа до срока); квадратными скобками обозначены град или гололедные отложения с указанием их диаметра в мм.
  • Облачность - указаны через наклонную черту общая и нижняя облачность в баллах и высота нижней границы облаков в метрах; квадратными скобками обозначены формы облаков: Ci - перистые, Cs - перисто-слоистые, Cc - перисто-кучевые, Ac - высококучевые, As - высокослоистые, Sc - слоисто-кучевые, Ns - слоисто-дождевые, Cu - кучевые, Cb - кучево-дождевые. Подробнее классификацию облаков см. в Атласе облаков (PDF).
  • T - Температура воздуха - температура, измеренная на высоте 2 м над землей.
  • Td - Температура точки росы - температура, при понижении до которой содержащийся в воздухе водяной пар достигнет насыщения.
  • f - Относительная влажность воздуха - влажноcть воздуха, измеренная на высоте 2 м над землей.
  • Te - Эффективная температура - температура, которую ощущает одетый по сезону человек в тени. Характеристика душности погоды. При расчете учитывается влияние влажности воздуха и скорости ветра на теплоощущения человека.
  • Tes - Эффективная температура на солнце - температура, которую ощущает человек, с поправкой на солнечный нагрев. Характеристика знойности погоды. Зависит от высоты солнца над горизонтом, облачности и скорости ветра. Ночью, в пасмурную погоду, а также при ветре 12 м/с и более поправка равна нулю.
  • P - Атмосферное давление - приведенное к уровню моря атмосферное давление.
  • Po - Атмосферное давление - измеренное на уровне метеостанции атмосферное давление.
  • Tmin - Минимальная температура - минимум температуры воздуха на высоте 2 м над землей.
  • Tmax - Максимальная температура - максимум температуры воздуха на высоте 2 м над землей.
  • R - Количество осадков - Количество выпавших осадков за период времени, мм. При наведении курсора мыши на число - период времени, за который выпало указанное количество осадков.
  • R24 - Количество осадков - Количество выпавших осадков за 24 часа, мм.
  • S - Снежный покров - Высота снежного покрова, см. При наведении курсора мыши на число - состояние снежного покрова и степень покрытия местности в баллах.